No;Time;Interval(mi);Indoor Humidity(%);Indoor Temperature(�C);Outdoor Humidity(%);Outdoor Temperature(�C);Absolute Pressure(Hpa);Wind(km/h);Gust(km/h);Direction;Relative Pressure(Hpa);Dewpoint(�C);Windchill(�C);Hour Rainfall(mm);24 hour Rainfall(mm);Week Rainfall(mm);Month Rainfall(mm);Total Rainfall(mm);Wind Level(bft);Gust Level(bft)
1;01-07-2012 00:03;30;53;25.5;72;18.7;1010.0;0.0;1.1;NW;1002.8;13.6;18.7;0.0;0.0;7.5;33.3;559.5;0;1
2;01-07-2012 00:33;30;53;25.5;75;18.1;1010.3;0.0;0.0;W;1003.1;13.6;18.1;0.0;0.0;7.5;33.3;559.5;0;0
3;01-07-2012 01:03;30;53;25.5;76;17.4;1010.5;0.0;1.1;NW;1003.3;13.1;17.4;0.0;0.0;7.5;33.3;559.5;0;1
4;01-07-2012 01:33;30;54;25.5;76;17.1;1010.7;0.0;0.0;NW;1003.5;12.9;17.1;0.0;0.0;7.5;33.3;559.5;0;0
5;01-07-2012 02:03;30;54;25.5;79;16.8;1010.5;0.0;1.1;SW;1003.3;13.2;16.8;0.0;0.0;7.5;33.3;559.5;0;1
6;01-07-2012 02:33;30;54;25.4;79;16.7;1010.5;0.0;1.1;NW;1003.3;13.1;16.7;0.0;0.0;7.5;33.3;559.5;0;1
7;01-07-2012 03:03;30;54;25.4;78;16.6;1010.9;0.0;2.5;NW;1003.7;12.8;16.6;0.0;0.0;7.5;33.3;559.5;0;1
8;01-07-2012 03:33;30;54;25.3;77;16.7;1011.4;0.0;1.1;SW;1004.2;12.7;16.7;0.0;0.0;7.5;33.3;559.5;0;1
9;01-07-2012 04:03;30;54;25.3;77;16.4;1011.1;0.0;1.1;NW;1003.9;12.4;16.4;0.0;0.0;7.5;33.3;559.5;0;1
10;01-07-2012 04:33;30;54;25.2;79;16.1;1011.2;0.0;0.0;N;1004.0;12.5;16.1;0.0;0.0;7.5;33.3;559.5;0;0
11;01-07-2012 05:03;30;54;25.2;82;15.8;1011.2;0.0;0.0;NW;1004.0;12.8;15.8;0.0;0.0;7.5;33.3;559.5;0;0
12;01-07-2012 05:33;30;54;25.2;82;15.9;1011.6;0.0;0.0;W;1004.4;12.9;15.9;0.0;0.0;7.5;33.3;559.5;0;0
13;01-07-2012 06:03;30;54;25.2;82;15.8;1012.1;0.0;1.1;W;1004.9;12.8;15.8;0.0;0.0;7.5;33.3;559.5;0;1
14;01-07-2012 06:33;30;54;25.1;82;15.7;1011.9;0.0;0.0;W;1004.7;12.7;15.7;0.0;0.0;7.5;33.3;559.5;0;0
15;01-07-2012 07:03;30;54;25.1;81;15.6;1012.2;0.0;0.0;W;1005.0;12.4;15.6;0.0;0.0;7.5;33.3;559.5;0;0
16;01-07-2012 07:33;30;54;25.1;83;15.8;1012.6;0.0;1.1;NW;1005.4;12.9;15.8;0.0;0.0;7.5;33.3;559.5;0;1
17;01-07-2012 08:03;30;54;25.1;74;16.1;1012.6;0.0;1.1;N;1005.4;11.5;16.1;0.0;0.0;7.5;33.3;559.5;0;1
18;01-07-2012 08:33;30;54;25.1;73;17.1;1012.9;0.0;0.0;NW;1005.7;12.2;17.1;0.0;0.0;7.5;33.3;559.5;0;0
19;01-07-2012 09:03;30;54;25.2;66;18.5;1013.0;0.0;0.0;W;1005.8;12.1;18.5;0.0;0.0;7.5;33.3;559.5;0;0
20;01-07-2012 09:33;30;54;25.3;60;20.2;1013.5;0.0;1.1;NE;1006.3;12.2;20.2;0.0;0.0;7.5;33.3;559.5;0;1
21;01-07-2012 10:03;30;54;25.4;54;21.8;1013.9;1.1;2.5;NE;1006.7;12.1;21.8;0.0;0.0;7.5;33.3;559.5;1;1
22;01-07-2012 10:33;30;49;25.0;58;21.0;1014.0;1.1;3.6;SW;1006.8;12.4;21.0;0.0;0.0;7.5;33.3;559.5;1;1
23;01-07-2012 11:03;30;49;24.7;53;22.7;1013.9;0.0;1.1;W;1006.7;12.7;22.7;0.0;0.0;7.5;33.3;559.5;0;1
24;01-07-2012 11:33;30;49;24.6;48;23.1;1013.8;3.6;6.1;NW;1006.6;11.5;23.1;0.0;0.0;7.5;33.3;559.5;1;2
25;01-07-2012 12:03;30;49;24.5;44;24.3;1013.9;1.1;3.6;E;1006.7;11.3;24.3;0.0;0.0;7.5;33.3;559.5;1;1
26;01-07-2012 12:33;30;46;24.6;43;24.4;1013.9;2.5;6.1;NW;1006.7;11.0;24.4;0.0;0.0;7.5;33.3;559.5;1;2
27;01-07-2012 13:03;30;45;24.6;44;23.8;1014.1;1.1;2.5;N;1006.9;10.8;23.8;0.0;0.0;7.5;33.3;559.5;1;1
28;01-07-2012 13:33;30;44;24.7;38;24.8;1014.4;2.5;6.1;NW;1007.2;9.6;24.8;0.0;0.0;7.5;33.3;559.5;1;2
29;01-07-2012 14:03;30;44;24.8;36;25.1;1014.5;1.1;3.6;SE;1007.3;9.0;25.1;0.0;0.0;7.5;33.3;559.5;1;1
30;01-07-2012 14:33;30;42;24.8;37;23.3;1014.7;0.0;1.1;SW;1007.5;7.8;23.3;0.0;0.0;7.5;33.3;559.5;0;1
31;01-07-2012 15:03;30;40;24.7;34;25.2;1014.7;2.5;5.0;SE;1007.5;8.3;25.2;0.0;0.0;7.5;33.3;559.5;1;1
32;01-07-2012 15:33;30;39;24.7;35;24.9;1014.9;0.0;5.0;N;1007.7;8.4;24.9;0.0;0.0;7.5;33.3;559.5;0;1
33;01-07-2012 16:03;30;39;24.7;33;25.3;1015.0;3.6;7.2;S;1007.8;7.9;25.3;0.0;0.0;7.5;33.3;559.5;1;2
34;01-07-2012 16:33;30;40;24.8;36;25.1;1015.4;0.0;3.6;E;1008.2;9.0;25.1;0.0;0.0;7.5;33.3;559.5;0;1
35;01-07-2012 17:03;30;39;25.0;27;27.2;1015.3;1.1;3.6;E;1008.1;6.6;27.2;0.0;0.0;7.2;33.3;559.5;1;1
36;01-07-2012 17:33;30;38;25.1;32;26.7;1015.6;1.1;3.6;SE;1008.4;8.7;26.7;0.0;0.0;7.2;33.3;559.5;1;1
37;01-07-2012 18:03;30;38;25.3;30;26.0;1016.0;0.0;1.1;NW;1008.8;7.1;26.0;0.0;0.0;6.3;33.3;559.5;0;1
38;01-07-2012 18:33;30;36;25.1;34;24.4;1015.4;2.5;5.0;W;1008.2;7.6;24.4;0.0;0.0;6.3;33.3;559.5;1;1
39;01-07-2012 19:03;30;37;24.6;40;22.3;1015.6;0.0;2.5;S;1008.4;8.1;22.3;0.0;0.0;6.0;33.3;559.5;0;1
40;01-07-2012 19:33;30;38;24.3;37;22.4;1015.6;0.0;1.1;SW;1008.4;7.0;22.4;0.0;0.0;5.7;33.3;559.5;0;1
41;01-07-2012 20:03;30;39;24.2;41;22.3;1015.4;0.0;1.1;N;1008.2;8.4;22.3;0.0;0.0;5.7;33.3;559.5;0;1
42;01-07-2012 20:33;30;39;24.1;44;21.1;1015.6;0.0;0.0;S;1008.4;8.4;21.1;0.0;0.0;5.7;33.3;559.5;0;0
43;01-07-2012 21:03;30;41;24.6;47;20.2;1015.5;0.0;1.1;SSW;1008.3;8.6;20.2;0.0;0.0;5.7;33.3;559.5;0;1
44;01-07-2012 21:33;30;40;25.1;48;19.7;1015.9;0.0;0.0;E;1008.7;8.4;19.7;0.0;0.0;5.7;33.3;559.5;0;0
45;01-07-2012 22:03;30;42;25.4;51;18.8;1016.1;0.0;0.0;N;1008.9;8.5;18.8;0.0;0.0;5.7;33.3;559.5;0;0
46;01-07-2012 22:33;30;43;25.5;52;18.2;1016.5;0.0;0.0;NW;1009.3;8.2;18.2;0.0;0.0;5.7;33.3;559.5;0;0
47;01-07-2012 23:03;30;42;25.5;54;17.9;1016.7;0.0;0.0;W;1009.5;8.5;17.9;0.0;0.0;5.7;33.3;559.5;0;0
48;01-07-2012 23:33;30;42;25.5;55;17.3;1016.7;0.0;0.0;W;1009.5;8.2;17.3;0.0;0.0;5.7;33.3;559.5;0;0
49;02-07-2012 00:03;30;43;25.4;58;16.6;1016.6;0.0;0.0;S;1009.4;8.3;16.6;0.0;0.0;5.7;33.3;559.5;0;0
50;02-07-2012 00:33;30;43;25.3;61;16.7;1016.6;0.0;0.0;SW;1009.4;9.2;16.7;0.0;0.0;5.7;33.3;559.5;0;0
51;02-07-2012 01:03;30;43;25.2;63;16.4;1016.2;0.0;0.0;S;1009.0;9.4;16.4;0.0;0.0;5.7;33.3;559.5;0;0
52;02-07-2012 01:33;30;43;25.1;64;16.3;1016.2;0.0;1.1;S;1009.0;9.5;16.3;0.0;0.0;5.7;33.3;559.5;0;1
53;02-07-2012 02:03;30;44;25.1;67;15.6;1016.1;0.0;0.0;S;1008.9;9.5;15.6;0.0;0.0;5.7;33.3;559.5;0;0
54;02-07-2012 02:33;30;44;25.0;68;15.6;1015.6;0.0;0.0;SW;1008.4;9.7;15.6;0.0;0.0;5.7;33.3;559.5;0;0
55;02-07-2012 03:03;30;45;25.0;69;15.7;1015.2;0.0;1.1;SW;1008.0;10.0;15.7;0.0;0.0;5.7;33.3;559.5;0;1
56;02-07-2012 03:33;30;46;24.9;70;15.5;1015.2;0.0;0.0;W;1008.0;10.1;15.5;0.0;0.0;5.7;33.3;559.5;0;0
57;02-07-2012 04:03;30;46;24.9;70;15.2;1015.0;0.0;1.1;W;1007.8;9.8;15.2;0.0;0.0;5.7;33.3;559.5;0;1
58;02-07-2012 04:33;30;46;24.9;73;14.7;1015.1;0.0;0.0;W;1007.9;9.9;14.7;0.0;0.0;5.7;33.3;559.5;0;0
59;02-07-2012 05:03;30;46;24.8;71;14.8;1014.9;0.0;0.0;W;1007.7;9.6;14.8;0.0;0.0;5.7;33.3;559.5;0;0
60;02-07-2012 05:33;30;46;24.8;72;14.6;1015.1;0.0;0.0;W;1007.9;9.6;14.6;0.0;0.0;5.7;33.3;559.5;0;0
61;02-07-2012 06:03;30;47;24.8;72;14.6;1015.1;1.1;2.5;W;1007.9;9.6;14.6;0.0;0.0;5.7;33.3;559.5;1;1
62;02-07-2012 06:33;30;49;24.7;73;14.5;1015.4;1.1;2.5;S;1008.2;9.7;14.5;0.0;0.0;5.7;33.3;559.5;1;1
63;02-07-2012 07:03;30;47;24.7;74;14.3;1015.3;0.0;2.5;S;1008.1;9.7;14.3;0.0;0.0;5.7;33.3;559.5;0;1
64;02-07-2012 07:33;30;47;24.7;73;14.8;1015.2;0.0;2.5;S;1008.0;10.0;14.8;0.0;0.0;5.7;33.3;559.5;0;1
65;02-07-2012 08:03;30;47;24.7;69;15.7;1015.1;1.1;2.5;W;1007.9;10.0;15.7;0.0;0.0;5.7;33.3;559.5;1;1
66;02-07-2012 08:33;30;45;24.5;62;17.2;1015.4;1.1;2.5;NW;1008.2;9.9;17.2;0.0;0.0;5.7;33.3;559.5;1;1
67;02-07-2012 09:03;30;46;24.6;46;22.1;1015.1;1.1;3.6;SW;1007.9;10.0;22.1;0.0;0.0;5.4;33.3;559.5;1;1
68;02-07-2012 09:33;30;48;25.0;46;23.5;1015.0;2.5;5.0;NW;1007.8;11.2;23.5;0.0;0.0;5.4;33.3;559.5;1;1
69;02-07-2012 10:03;30;48;25.2;43;24.9;1015.0;2.5;6.1;NW;1007.8;11.5;24.9;0.0;0.0;5.4;33.3;559.5;1;2
70;02-07-2012 10:33;30;48;25.3;---;---;1015.2;---;---;---;1008.0;---;---;0.0;0.0;5.4;33.3;559.5;---;---
71;02-07-2012 11:03;30;48;25.3;39;25.9;1015.0;5.0;7.2;W;1007.8;10.9;25.9;0.0;0.0;5.4;33.3;559.5;1;2
72;02-07-2012 11:33;30;48;25.4;37;26.2;1014.9;2.5;5.0;S;1007.7;10.4;26.2;0.0;0.0;5.4;33.3;559.5;1;1
73;02-07-2012 12:03;30;48;25.4;33;26.5;1014.7;6.1;8.6;SW;1007.5;9.0;26.5;0.0;0.0;5.4;33.3;559.5;2;2
74;02-07-2012 12:33;30;48;25.4;33;27.2;1014.5;1.1;2.5;N;1007.3;9.6;27.2;0.0;0.0;5.4;33.3;559.5;1;1
75;02-07-2012 13:03;30;48;25.4;34;25.8;1014.3;3.6;6.1;NE;1007.1;8.8;25.8;0.0;0.0;5.4;33.3;559.5;1;2
76;02-07-2012 13:33;30;48;25.5;33;26.6;1014.0;1.1;2.5;SE;1006.8;9.0;26.6;0.0;0.0;5.4;33.3;559.5;1;1
77;02-07-2012 14:03;30;48;25.5;32;27.3;1013.6;2.5;7.2;NW;1006.4;9.2;27.3;0.0;0.0;5.4;33.3;559.5;1;2
78;02-07-2012 14:33;30;48;25.5;31;28.1;1013.4;1.1;6.1;N;1006.2;9.4;28.1;0.0;0.0;5.4;33.3;559.5;1;2
79;02-07-2012 15:03;30;48;25.5;33;26.7;1013.1;0.0;2.5;NNW;1005.9;9.1;26.7;0.0;0.0;5.4;33.3;559.5;0;1
80;02-07-2012 15:33;30;47;25.5;32;26.9;1013.0;5.0;9.7;SE;1005.8;8.8;26.9;0.0;0.0;5.4;33.3;559.5;1;2
81;02-07-2012 16:03;30;48;25.5;31;27.4;1013.1;5.0;9.7;NE;1005.9;8.8;27.4;0.0;0.0;5.4;33.3;559.5;1;2
82;02-07-2012 16:33;30;48;25.5;34;28.3;1013.1;2.5;6.1;NW;1005.9;11.0;28.3;0.0;0.0;5.4;33.3;559.5;1;2
83;02-07-2012 17:03;30;46;25.7;33;28.4;1012.8;3.6;5.0;SW;1005.6;10.6;28.4;0.0;0.0;5.4;33.3;559.5;1;1
84;02-07-2012 17:33;30;44;25.7;31;27.0;1012.8;2.5;5.0;NW;1005.6;8.5;27.0;0.0;0.0;5.4;33.3;559.5;1;1
85;02-07-2012 18:03;30;44;25.7;32;26.9;1012.8;2.5;5.0;W;1005.6;8.8;26.9;0.0;0.0;5.4;33.3;559.5;1;1
86;02-07-2012 18:33;30;44;25.5;36;25.7;1012.8;0.0;2.5;W;1005.6;9.5;25.7;0.0;0.0;5.4;33.3;559.5;0;1
87;02-07-2012 19:03;30;44;25.5;36;25.1;1012.9;0.0;2.5;E;1005.7;9.0;25.1;0.0;0.0;5.4;33.3;559.5;0;1
88;02-07-2012 19:33;30;43;25.5;39;24.6;1013.0;0.0;2.5;S;1005.8;9.8;24.6;0.0;0.0;5.4;33.3;559.5;0;1
89;02-07-2012 20:03;30;44;25.5;39;24.3;1013.1;2.5;5.0;S;1005.9;9.5;24.3;0.0;0.0;5.4;33.3;559.5;1;1
90;02-07-2012 20:33;30;43;25.4;44;23.6;1013.1;1.1;3.6;SW;1005.9;10.7;23.6;0.0;0.0;5.4;33.3;559.5;1;1
91;02-07-2012 21:03;30;43;25.4;45;22.5;1013.2;1.1;3.6;SW;1006.0;10.0;22.5;0.0;0.0;5.4;33.3;559.5;1;1
92;02-07-2012 21:33;30;43;25.3;46;22.2;1013.3;1.1;3.6;SW;1006.1;10.1;22.2;0.0;0.0;5.4;33.3;559.5;1;1
93;02-07-2012 22:03;30;43;25.3;46;21.5;1013.6;0.0;0.0;S;1006.4;9.4;21.5;0.0;0.0;5.4;33.3;559.5;0;0
94;02-07-2012 22:33;30;42;25.2;45;21.1;1013.7;0.0;1.1;N;1006.5;8.7;21.1;0.0;0.0;5.4;33.3;559.5;0;1
95;02-07-2012 23:03;30;42;25.3;51;20.5;1014.0;0.0;0.0;W;1006.8;10.0;20.5;0.0;0.0;5.1;33.3;559.5;0;0
96;02-07-2012 23:33;30;43;25.3;53;20.2;1014.2;1.1;3.6;W;1007.0;10.3;20.2;0.0;0.0;5.1;33.3;559.5;1;1
97;03-07-2012 00:03;30;44;25.3;60;19.5;1014.1;0.0;2.5;SW;1006.9;11.6;19.5;0.0;0.0;5.1;33.3;559.5;0;1
98;03-07-2012 00:33;30;44;25.3;61;19.3;1013.9;0.0;0.0;N;1006.7;11.6;19.3;0.0;0.0;5.1;33.3;559.5;0;0
99;03-07-2012 01:03;30;44;25.2;63;18.9;1013.8;0.0;0.0;W;1006.6;11.7;18.9;0.0;0.0;5.1;33.3;559.5;0;0
100;03-07-2012 01:33;30;45;25.1;64;18.6;1013.9;0.0;0.0;SW;1006.7;11.7;18.6;0.0;0.0;5.1;33.3;559.5;0;0
101;03-07-2012 02:03;30;45;25.0;65;18.2;1014.0;0.0;0.0;NW;1006.8;11.5;18.2;0.0;0.0;5.1;33.3;559.5;0;0
102;03-07-2012 02:33;30;45;25.0;65;17.7;1013.8;0.0;0.0;W;1006.6;11.1;17.7;0.0;0.0;5.1;33.3;559.5;0;0
103;03-07-2012 03:03;30;47;24.9;67;17.3;1013.7;0.0;1.1;S;1006.5;11.1;17.3;0.0;0.0;5.1;33.3;559.5;0;1
104;03-07-2012 03:33;30;47;24.9;68;17.6;1013.5;0.0;0.0;W;1006.3;11.6;17.6;0.0;0.0;5.1;32.7;559.5;0;0
105;03-07-2012 04:03;30;48;24.8;69;17.8;1013.6;1.1;2.5;W;1006.4;12.1;17.8;0.0;0.0;5.1;31.2;559.5;1;1
106;03-07-2012 04:33;30;49;24.8;70;17.4;1013.7;0.0;0.0;SW;1006.5;11.9;17.4;0.0;0.0;5.1;26.4;559.5;0;0
107;03-07-2012 05:03;30;48;24.8;73;16.9;1013.7;0.0;1.1;SW;1006.5;12.1;16.9;0.0;0.0;5.1;25.2;559.5;0;1
108;03-07-2012 05:33;30;49;24.7;75;16.6;1013.6;0.0;1.1;W;1006.4;12.2;16.6;0.0;0.0;5.1;25.2;559.5;0;1
109;03-07-2012 06:03;30;49;24.7;76;16.4;1013.7;1.1;2.5;W;1006.5;12.2;16.4;0.0;0.0;5.1;24.0;559.5;1;1
110;03-07-2012 06:33;30;49;24.7;77;16.2;1013.7;2.5;5.0;W;1006.5;12.2;16.2;0.0;0.0;5.1;23.7;559.5;1;1
111;03-07-2012 07:03;30;49;24.6;79;15.9;1013.8;0.0;0.0;SW;1006.6;12.3;15.9;0.0;0.0;4.8;23.7;559.5;0;0
112;03-07-2012 07:33;30;50;24.6;79;16.1;1013.6;0.0;2.5;SW;1006.4;12.5;16.1;0.0;0.0;4.8;23.7;559.5;0;1
113;03-07-2012 08:03;30;51;24.6;78;16.7;1013.9;0.0;1.1;E;1006.7;12.9;16.7;0.0;0.0;4.8;23.4;559.5;0;1
114;03-07-2012 08:33;30;51;24.8;73;18.1;1013.9;0.0;2.5;W;1006.7;13.2;18.1;0.0;0.0;4.8;23.4;559.5;0;1
115;03-07-2012 09:03;30;51;24.7;72;18.8;1013.7;1.1;2.5;W;1006.5;13.7;18.8;0.0;0.0;4.8;23.4;559.5;1;1
116;03-07-2012 09:33;30;52;24.9;69;19.9;1013.8;1.1;3.6;NE;1006.6;14.1;19.9;0.0;0.0;4.8;23.4;559.5;1;1
117;03-07-2012 10:03;30;52;24.9;---;---;1013.6;---;---;---;1006.4;---;---;0.0;0.0;4.8;23.4;559.5;---;---
118;03-07-2012 10:33;30;51;25.2;57;23.0;1013.6;5.0;6.1;SW;1006.4;14.1;23.0;0.0;0.0;4.8;23.4;559.5;1;2
119;03-07-2012 11:03;30;52;25.3;54;24.3;1013.6;1.1;6.1;W;1006.4;14.4;24.3;0.0;0.0;4.8;23.4;559.5;1;2
120;03-07-2012 11:33;30;52;25.4;48;25.9;1013.5;6.1;9.7;SW;1006.3;14.1;25.9;0.0;0.0;4.8;23.4;559.5;2;2
121;03-07-2012 12:03;30;52;25.5;50;24.7;1013.5;0.0;1.1;W;1006.3;13.6;24.7;0.0;0.0;4.8;23.4;559.5;0;1
122;03-07-2012 12:33;30;52;25.5;---;---;1013.3;---;---;---;1006.1;---;---;0.0;0.0;4.8;23.4;559.5;---;---
123;03-07-2012 13:03;30;52;25.5;57;24.0;1013.2;0.0;0.0;NW;1006.0;15.0;24.0;0.0;0.0;4.8;23.4;559.5;0;0
124;03-07-2012 13:33;30;52;25.5;47;27.6;1013.0;3.6;8.6;SW;1005.8;15.3;27.6;0.0;0.0;4.8;23.4;559.5;1;2
125;03-07-2012 14:03;30;52;25.7;45;26.5;1012.8;3.6;5.0;W;1005.6;13.6;26.5;0.0;0.0;4.8;23.4;559.5;1;1
126;03-07-2012 14:33;30;52;25.7;49;25.0;1012.6;2.5;5.0;NW;1005.4;13.6;25.0;0.0;0.0;4.8;23.4;559.5;1;1
127;03-07-2012 15:03;30;52;25.7;54;24.4;1012.4;1.1;5.0;S;1005.2;14.5;24.4;0.0;0.0;4.8;23.4;559.5;1;1
128;03-07-2012 15:33;30;52;25.7;52;24.5;1012.4;1.1;3.6;SW;1005.2;14.0;24.5;0.0;0.0;4.8;23.4;559.5;1;1
129;03-07-2012 16:03;30;52;25.7;52;24.4;1012.1;0.0;1.1;S;1004.9;13.9;24.4;0.0;0.0;4.8;23.4;559.5;0;1
130;03-07-2012 16:33;30;52;25.8;47;26.0;1012.1;2.5;5.0;NWW;1004.9;13.8;26.0;0.0;0.0;4.8;23.4;559.5;1;1
131;03-07-2012 17:03;30;52;25.7;54;24.6;1011.8;1.1;3.6;NWW;1004.6;14.7;24.6;0.0;0.0;4.8;23.4;559.5;1;1
132;03-07-2012 17:33;30;53;25.7;51;25.2;1011.6;1.1;3.6;SW;1004.4;14.4;25.2;0.0;0.0;4.8;23.4;559.5;1;1
133;03-07-2012 18:03;30;53;25.7;51;25.0;1011.3;2.5;7.2;SW;1004.1;14.2;25.0;0.0;0.0;4.8;23.4;559.5;1;2
134;03-07-2012 18:33;30;53;25.7;51;25.8;1011.1;2.5;5.0;W;1003.9;14.9;25.8;0.0;0.0;4.8;23.1;559.5;1;1
135;03-07-2012 19:03;30;53;25.7;49;25.7;1010.8;2.5;3.6;NWW;1003.6;14.2;25.7;0.0;0.0;4.8;23.1;559.5;1;1
136;03-07-2012 19:33;30;53;25.8;48;25.6;1010.7;2.5;6.1;SW;1003.5;13.8;25.6;0.0;0.0;4.8;23.1;559.5;1;2
137;03-07-2012 20:03;30;53;25.9;50;25.1;1010.7;2.5;3.6;S;1003.5;14.0;25.1;0.0;0.0;4.8;23.1;559.5;1;1
138;03-07-2012 20:33;30;52;26.0;52;24.9;1010.6;0.0;2.5;NE;1003.4;14.4;24.9;0.0;0.0;4.8;23.1;559.5;0;1
139;03-07-2012 21:03;30;52;26.0;54;24.3;1010.3;0.0;2.5;NW;1003.1;14.4;24.3;0.0;0.0;4.5;23.1;559.5;0;1
140;03-07-2012 21:33;30;52;26.0;56;23.8;1010.3;0.0;0.0;N;1003.1;14.5;23.8;0.0;0.0;4.2;23.1;559.5;0;0
141;03-07-2012 22:03;30;52;26.0;57;23.0;1010.3;0.0;0.0;W;1003.1;14.1;23.0;0.0;0.0;4.2;23.1;559.5;0;0
142;03-07-2012 22:33;30;52;26.0;59;22.5;1010.5;0.0;0.0;NW;1003.3;14.1;22.5;0.0;0.0;4.2;23.1;559.5;0;0
143;03-07-2012 23:03;30;53;25.9;63;21.5;1010.6;0.0;0.0;W;1003.4;14.2;21.5;0.0;0.0;4.2;23.1;559.5;0;0
144;03-07-2012 23:33;30;53;25.8;64;21.4;1010.6;0.0;0.0;NW;1003.4;14.3;21.4;0.0;0.0;4.2;23.1;559.5;0;0
145;04-07-2012 00:03;30;54;25.7;66;21.4;1010.4;0.0;1.1;N;1003.2;14.8;21.4;0.0;0.0;4.2;23.1;559.5;0;1
146;04-07-2012 00:33;30;54;25.7;67;21.2;1010.2;0.0;0.0;W;1003.0;14.9;21.2;0.0;0.0;4.2;23.1;559.5;0;0
147;04-07-2012 01:03;30;54;25.5;71;20.2;1010.1;0.0;0.0;W;1002.9;14.8;20.2;0.0;0.0;4.2;23.1;559.5;0;0
148;04-07-2012 01:33;30;54;25.5;73;20.1;1009.8;0.0;0.0;W;1002.6;15.1;20.1;0.0;0.0;4.2;22.8;559.5;0;0
149;04-07-2012 02:03;30;54;25.4;73;20.1;1009.6;0.0;0.0;SW;1002.4;15.1;20.1;0.0;0.0;4.2;22.8;559.5;0;0
150;04-07-2012 02:33;30;54;25.3;73;20.1;1009.5;0.0;0.0;W;1002.3;15.1;20.1;0.0;0.0;4.2;22.8;559.5;0;0
151;04-07-2012 03:03;30;54;25.3;74;19.7;1009.1;0.0;0.0;SW;1001.9;15.0;19.7;0.0;0.0;4.2;22.8;559.5;0;0
152;04-07-2012 03:33;30;55;25.3;74;19.5;1008.7;0.0;0.0;W;1001.5;14.8;19.5;0.0;0.0;4.2;22.8;559.5;0;0
153;04-07-2012 04:03;30;55;25.3;74;19.6;1008.6;0.0;0.0;NW;1001.4;14.9;19.6;0.0;0.0;4.2;22.8;559.5;0;0
154;04-07-2012 04:33;30;55;25.2;74;19.5;1008.3;0.0;0.0;NW;1001.1;14.8;19.5;0.0;0.0;4.2;22.8;559.5;0;0
155;04-07-2012 05:03;30;55;25.2;75;19.1;1008.0;0.0;0.0;NW;1000.8;14.6;19.1;0.0;0.0;4.2;22.8;559.5;0;0
156;04-07-2012 05:33;30;55;25.2;75;19.1;1007.8;0.0;0.0;SW;1000.6;14.6;19.1;0.0;0.0;4.2;22.8;559.5;0;0
157;04-07-2012 06:03;30;55;25.1;75;19.3;1007.8;0.0;0.0;SW;1000.6;14.8;19.3;0.0;0.0;4.2;22.8;559.5;0;0
158;04-07-2012 06:33;30;55;25.1;74;19.4;1007.7;0.0;0.0;W;1000.5;14.7;19.4;0.0;0.0;4.2;22.8;559.5;0;0
159;04-07-2012 07:03;30;55;25.1;75;19.3;1007.7;0.0;0.0;S;1000.5;14.8;19.3;0.0;0.0;4.2;22.8;559.5;0;0
160;04-07-2012 07:33;30;55;25.1;76;19.2;1007.6;0.0;0.0;W;1000.4;14.9;19.2;0.0;0.0;4.2;22.8;559.5;0;0
161;04-07-2012 08:03;30;55;25.1;74;20.1;1007.4;0.0;0.0;SW;1000.2;15.3;20.1;0.0;0.0;4.2;22.8;559.5;0;0
162;04-07-2012 08:33;30;55;25.1;68;22.2;1007.4;0.0;0.0;N;1000.2;16.0;22.2;0.0;0.0;4.2;22.8;559.5;0;0
163;04-07-2012 09:03;30;55;25.2;55;25.1;1007.5;2.5;6.1;NWW;1000.3;15.5;25.1;0.0;0.0;4.2;22.8;559.5;1;2
164;04-07-2012 09:33;30;56;25.2;55;25.8;1007.4;1.1;5.0;W;1000.2;16.1;25.8;0.0;0.0;4.2;22.8;559.5;1;1
165;04-07-2012 10:03;30;56;25.3;48;28.8;1007.2;1.1;5.0;N;1000.0;16.7;28.8;0.0;0.0;4.2;22.8;559.5;1;1
166;04-07-2012 10:33;30;56;25.5;46;28.9;1007.1;2.5;6.1;W;999.9;16.2;28.9;0.0;0.0;4.2;22.8;559.5;1;2
167;04-07-2012 11:03;30;55;25.5;46;28.9;1006.9;1.1;3.6;W;999.7;16.2;28.9;0.0;0.0;4.2;22.8;559.5;1;1
168;04-07-2012 11:33;30;56;25.7;43;30.5;1006.8;6.1;9.7;SE;999.6;16.5;30.5;0.0;0.0;4.2;22.8;559.5;2;2
169;04-07-2012 12:03;30;56;25.9;44;30.8;1006.6;0.0;2.5;W;999.4;17.2;30.8;0.0;0.0;4.2;22.8;559.5;0;1
170;04-07-2012 12:33;30;56;26.1;40;31.2;1006.5;2.5;5.0;NW;999.3;16.0;31.2;0.0;0.0;4.2;22.8;559.5;1;1
171;04-07-2012 13:03;30;54;26.3;42;30.9;1006.3;2.5;5.0;SE;999.1;16.5;30.9;0.0;0.0;4.2;22.8;559.5;1;1
172;04-07-2012 13:33;30;54;26.4;44;29.3;1006.1;2.5;5.0;NE;998.9;15.8;29.3;0.0;0.0;4.2;22.8;559.5;1;1
173;04-07-2012 14:03;30;54;26.5;56;26.9;1006.0;6.1;8.6;W;998.8;17.4;26.9;0.3;0.3;4.5;23.1;559.8;2;2
174;04-07-2012 14:33;30;58;26.4;63;25.3;1006.2;2.5;5.0;N;999.0;17.8;25.3;0.3;0.3;4.5;23.1;559.8;1;1
175;04-07-2012 15:03;30;59;26.4;52;29.2;1005.8;1.1;3.6;W;998.6;18.4;29.2;0.0;0.3;4.5;23.1;559.8;1;1
176;04-07-2012 15:33;30;58;26.5;44;30.0;1005.2;1.1;3.6;NW;998.0;16.5;30.0;0.0;0.3;4.5;23.1;559.8;1;1
177;04-07-2012 16:03;30;55;26.6;42;29.9;1004.9;1.1;3.6;SW;997.7;15.6;29.9;0.0;0.3;4.5;23.1;559.8;1;1
178;04-07-2012 16:33;30;55;26.9;---;---;1004.9;---;---;---;997.7;---;---;0.0;0.3;4.5;23.1;559.8;---;---
179;04-07-2012 17:03;30;54;27.0;41;31.4;1004.7;3.6;7.2;SW;997.5;16.6;31.4;0.0;0.3;4.5;23.1;559.8;1;2
180;04-07-2012 17:33;30;53;27.2;---;---;1004.7;---;---;---;997.5;---;---;0.0;0.3;4.5;23.1;559.8;---;---
181;04-07-2012 18:03;30;52;27.4;---;---;1004.7;---;---;---;997.5;---;---;0.0;0.3;4.5;23.1;559.8;---;---
182;04-07-2012 18:33;30;52;27.5;---;---;1004.8;---;---;---;997.6;---;---;0.0;0.3;4.5;23.1;559.8;---;---
183;04-07-2012 19:03;30;50;27.5;40;28.2;1004.8;3.6;7.2;SW;997.6;13.4;28.2;0.0;0.3;4.5;23.1;559.8;1;2
184;04-07-2012 19:33;30;48;27.5;42;27.0;1004.8;2.5;6.1;W;997.6;13.0;27.0;0.0;0.3;4.5;23.1;559.8;1;2
185;04-07-2012 20:03;30;48;27.4;---;---;1005.1;---;---;---;997.9;---;---;0.0;0.3;4.5;23.1;559.8;---;---
186;04-07-2012 20:33;30;48;27.3;47;26.2;1005.2;0.0;2.5;SW;998.0;14.0;26.2;0.0;0.3;4.5;23.1;559.8;0;1
187;04-07-2012 21:03;30;48;27.3;49;26.2;1005.3;2.5;5.0;NW;998.1;14.7;26.2;0.0;0.3;4.5;23.1;559.8;1;1
188;04-07-2012 21:33;30;50;27.3;53;25.9;1005.3;0.0;1.1;NE;998.1;15.6;25.9;0.0;0.3;4.5;23.1;559.8;0;1
189;04-07-2012 22:03;30;51;27.3;54;25.3;1005.1;1.1;2.5;SW;997.9;15.4;25.3;0.0;0.3;4.5;23.1;559.8;1;1
190;04-07-2012 22:33;30;51;27.3;56;24.9;1005.4;5.0;7.2;S;998.2;15.6;24.9;0.0;0.3;4.5;23.1;559.8;1;2
191;12-07-2012 21:09;30;53;24.9;95;15.5;1010.6;1.1;2.5;S;1013.3;14.7;15.5;32.4;32.4;32.4;51.9;592.2;1;1
192;12-07-2012 21:39;30;48;26.7;96;15.1;1010.8;2.5;6.1;NW;1013.5;14.5;15.1;33.0;33.0;33.0;52.5;592.8;1;2
193;12-07-2012 22:09;30;47;28.2;98;14.9;1011.0;0.0;1.1;SW;1013.7;14.6;14.9;0.9;33.3;33.3;52.8;593.1;0;1
194;12-07-2012 22:39;30;44;29.3;98;14.5;1011.1;1.1;3.6;SW;1013.8;14.2;14.5;0.9;33.9;33.9;53.4;593.7;1;1
195;12-07-2012 23:09;30;41;30.0;97;14.2;1010.9;1.1;5.0;NW;1013.6;13.7;14.2;1.2;34.5;34.5;54.0;594.3;1;1
196;12-07-2012 23:39;30;40;30.3;97;14.2;1010.7;0.0;0.0;W;1013.4;13.7;14.2;0.9;34.8;34.8;54.3;594.6;0;0
197;13-07-2012 00:09;30;39;30.5;97;14.1;1010.1;0.0;0.0;W;1012.8;13.6;14.1;0.6;35.1;35.1;54.3;594.9;0;0
198;13-07-2012 00:39;30;39;30.5;98;14.2;1009.9;0.0;2.5;W;1012.6;13.9;14.2;0.3;35.1;35.1;54.3;594.9;0;1
199;13-07-2012 01:09;30;38;30.7;98;14.3;1009.8;0.0;1.1;NW;1012.5;14.0;14.3;0.3;35.4;35.4;54.6;595.2;0;1
200;13-07-2012 01:39;30;38;30.7;99;14.3;1009.4;0.0;1.1;W;1012.1;14.2;14.3;0.6;35.7;35.7;54.9;595.5;0;1
201;13-07-2012 02:09;30;38;30.7;99;14.4;1008.9;0.0;3.6;W;1011.6;14.3;14.4;0.6;36.0;36.0;55.2;595.8;0;1
202;13-07-2012 02:39;30;38;30.7;99;14.3;1008.6;1.1;3.6;W;1011.3;14.2;14.3;0.6;36.3;36.3;55.5;596.1;1;1
203;13-07-2012 03:09;30;38;30.7;99;14.3;1008.1;1.1;2.5;W;1010.8;14.2;14.3;0.3;36.3;36.3;55.5;596.1;1;1
204;13-07-2012 03:39;30;38;30.7;99;14.3;1007.6;0.0;1.1;W;1010.3;14.2;14.3;0.3;36.6;36.6;55.8;596.4;0;1
205;13-07-2012 04:09;30;38;30.7;99;14.3;1007.1;2.5;5.0;NW;1009.8;14.2;14.3;0.3;36.6;36.6;55.8;596.4;1;1
206;13-07-2012 04:39;30;37;30.7;99;14.4;1006.7;5.0;6.1;W;1009.4;14.3;14.4;0.0;36.6;36.6;55.8;596.4;1;2
207;13-07-2012 05:09;30;37;30.7;98;14.3;1006.5;0.0;1.1;SEE;1009.2;14.0;14.3;0.0;36.6;36.6;55.8;596.4;0;1
208;13-07-2012 05:39;30;38;30.7;96;14.2;1006.0;2.5;5.0;NW;1008.7;13.6;14.2;0.0;36.6;36.6;55.8;596.4;1;1
209;13-07-2012 06:09;30;38;30.5;96;14.0;1005.6;3.6;6.1;W;1008.3;13.4;14.0;0.0;36.6;36.6;55.8;596.4;1;2
210;13-07-2012 06:39;30;37;30.5;97;14.1;1005.7;3.6;7.2;W;1008.4;13.6;14.1;0.3;36.9;36.9;56.1;596.7;1;2
211;13-07-2012 07:09;30;37;30.6;96;14.3;1005.7;2.5;6.1;SSW;1008.4;13.7;14.3;0.3;36.9;36.9;56.1;596.7;1;2
212;13-07-2012 07:39;30;37;30.6;97;14.4;1005.3;5.0;8.6;SW;1008.0;13.9;14.4;0.0;36.9;36.9;56.1;596.7;1;2
213;13-07-2012 08:09;30;38;30.6;97;14.8;1005.2;1.1;5.0;N;1007.9;14.3;14.8;0.0;36.9;36.9;56.1;596.7;1;1
214;13-07-2012 08:39;30;38;30.6;96;15.0;1005.0;0.0;2.5;NW;1007.7;14.4;15.0;0.0;36.9;36.9;56.1;596.7;0;1
215;13-07-2012 09:09;30;37;30.6;96;15.2;1004.8;1.1;3.6;N;1007.5;14.6;15.2;0.0;36.9;36.9;56.1;596.7;1;1
216;13-07-2012 09:39;30;38;30.6;96;15.6;1004.5;1.1;3.6;W;1007.2;15.0;15.6;0.0;36.9;36.9;56.1;596.7;1;1
217;13-07-2012 10:09;30;38;30.6;95;16.0;1004.2;3.6;12.2;SW;1006.9;15.2;16.0;0.3;37.2;37.2;56.4;597.0;1;3
218;13-07-2012 10:39;30;38;30.6;95;16.4;1004.1;1.1;5.0;NW;1006.8;15.6;16.4;0.3;37.2;37.2;56.4;597.0;1;1
219;13-07-2012 11:09;30;38;30.7;94;16.8;1003.8;5.0;7.2;NW;1006.5;15.8;16.8;0.0;37.2;37.2;56.4;597.0;1;2
220;13-07-2012 11:39;30;38;30.7;93;17.1;1003.6;1.1;3.6;NW;1006.3;16.0;17.1;0.0;37.2;37.2;56.4;597.0;1;1
221;13-07-2012 12:09;30;39;30.8;90;17.8;1003.3;2.5;6.1;NW;1006.0;16.2;17.8;0.0;37.2;37.2;56.4;597.0;1;2
222;13-07-2012 12:39;30;38;30.9;91;17.4;1003.2;1.1;2.5;W;1005.9;15.9;17.4;1.2;38.4;38.4;57.6;598.2;1;1
223;13-07-2012 13:09;30;38;30.9;94;17.4;1002.8;1.1;3.6;N;1005.5;16.4;17.4;2.4;39.6;39.6;58.8;599.4;1;1
224;13-07-2012 13:39;30;38;31.0;93;18.0;1002.6;0.0;1.1;NW;1005.3;16.9;18.0;1.2;39.6;39.6;58.8;599.4;0;1
225;13-07-2012 14:09;30;38;31.0;87;19.5;1002.3;0.0;1.1;N;1005.0;17.3;19.5;0.3;39.9;39.9;59.1;599.7;0;1
226;13-07-2012 14:39;30;39;31.1;76;20.4;1002.2;1.1;3.6;NW;1004.9;16.1;20.4;0.3;39.9;39.9;59.1;599.7;1;1
227;13-07-2012 15:09;30;38;31.1;72;20.1;1002.0;2.5;6.1;SE;1004.7;14.9;20.1;0.0;39.9;39.9;59.1;599.7;1;2
228;13-07-2012 15:39;30;38;31.2;65;20.0;1001.8;2.5;6.1;SW;1004.5;13.2;20.0;0.0;39.9;39.9;59.1;599.7;1;2
229;13-07-2012 16:09;30;38;31.2;70;19.5;1001.7;2.5;5.0;NW;1004.4;13.9;19.5;0.0;39.9;39.9;59.1;599.7;1;1
230;13-07-2012 16:39;30;38;31.3;75;18.7;1001.6;3.6;5.0;E;1004.3;14.2;18.7;0.0;39.9;39.9;59.1;599.7;1;1
231;13-07-2012 17:09;30;37;31.2;82;17.6;1001.7;1.1;6.1;SW;1004.4;14.5;17.6;0.0;39.9;39.9;59.1;599.7;1;2